Location: Home
(42.5358°N, 72.7383°W)
Time: 19:03:58
(UTC-05:00)

Transit 4A - Pass Details

Date: 05 December 2021
Orbit: 863 x 981 km, 66.8° (Epoch: 23 January)

Event Time Altitude Azimuth Distance (km) Brightness Sun altitude
Rises 03:30:33 0° 330° (NNW) 3,615 - -38.8°
Reaches altitude 10° 03:33:05 10° 332° (NNW) 2,683 - -38.3°
Maximum altitude 03:39:22 74° 58° (ENE) 1,008 - -37.2°
Exits shadow 03:42:13 35° 135° (SE) 1,518 9.2 -36.6°
Drops below altitude 10° 03:45:45 10° 143° (SE) 2,720 10.7 -36.0°
Sets 03:48:20 0° 145° (SE) 3,668 11.4 -35.5°
